WO1J Weather Reports


time (UTC)temp
F
wind
direction
speed
knots
gust
knots
rain 1hr
in
rain 24hr
in
rain mn
in
humidity
%
barometer
mb
20260507070041 48 315 1.7 7.0 0.00 0.48 0.05 95 1005.6
20260507064503 48 309 1.7 7.0 0.00 0.48 0.05 95 1005.2
20260507063029 48 296 1.7 4.3 0.00 0.48 0.05 95 1005.0
20260507061600 48 298 1.7 5.2 0.00 0.48 0.05 95 1005.0
20260507060021 48 319 2.6 5.2 0.00 0.48 0.05 94 1004.7
20260507054551 49 335 1.7 9.6 0.00 0.48 0.05 94 1004.9
20260507053017 49 328 7.0 12.2 0.01 0.48 0.05 94 1004.4
20260507051540 50 315 7.8 16.5 0.01 0.48 0.05 95 1004.7
20260507050002 50 355 2.6 9.6 0.05 0.48 0.05 96 1004.5
20260507044524 51 337 4.3 14.8 0.07 0.48 0.05 96 1004.5
20260507043049 54 317 9.6 18.2 0.06 0.47 0.04 97 1004.3
20260507041601 55 292 4.3 11.3 0.06 0.47 0.04 97 1003.9
20260507040024 55 239 0.9 1.7 0.01 0.42 0.42 97 1003.9
20260507034558 55 248 0.9 1.7 0.01 0.41 0.41 97 1003.8
20260507033026 55 311 0.0 1.7 0.01 0.41 0.41 97 1003.5
20260507031555 55 201 0.0 3.5 0.01 0.41 0.41 97 1003.3
20260507030020 55 182 0.9 1.7 0.01 0.41 0.41 97 1003.4
20260507024603 55 201 0.0 5.2 0.00 0.40 0.40 97 1003.5
20260507023020 55 186 0.9 6.1 0.00 0.40 0.40 97 1003.6
20260507021552 55 172 0.0 5.2 0.00 0.40 0.40 97 1003.6
20260507020023 55 194 1.7 5.2 0.00 0.40 0.40 97 1003.7
20260507014553 55 194 0.9 5.2 0.00 0.40 0.40 97 1003.7
20260507013038 55 175 0.9 5.2 0.00 0.40 0.40 97 1004.0
20260507011547 55 164 0.9 6.1 0.00 0.40 0.40 97 1003.9
20260507010025 55 156 1.7 5.2 0.00 0.40 0.40 96 1004.0
20260507004553 55 143 2.6 7.8 0.00 0.40 0.40 97 1004.1
20260507003014 55 185 0.9 6.1 0.00 0.40 0.40 97 1004.0
20260507001543 55 175 0.9 9.6 0.00 0.40 0.40 96 1004.0
20260507000005 55 172 1.7 5.2 0.00 0.40 0.40 96 1004.0
20260506234537 55 188 2.6 9.6 0.00 0.40 0.40 96 1004.0
20260506233007 56 157 3.5 10.4 0.00 0.40 0.40 96 1004.0
20260506231533 56 165 6.1 10.4 0.00 0.40 0.40 96 1004.1
20260506230003 56 132 3.5 9.6 0.00 0.40 0.40 96 1004.0
20260506224533 56 181 2.6 8.7 0.01 0.40 0.40 96 1004.4
20260506223059 56 156 4.3 8.7 0.01 0.40 0.40 96 1004.5
20260506221525 56 200 2.6 9.6 0.01 0.40 0.40 96 1004.6
20260506220055 56 203 2.6 8.7 0.02 0.40 0.40 96 1004.8
20260506214537 56 208 2.6 8.7 0.05 0.39 0.39 96 1004.9
20260506213112 56 146 1.7 9.6 0.10 0.39 0.39 96 1004.9
20260506211522 56 114 1.7 10.4 0.12 0.39 0.39 96 1005.1
20260506210053 56 163 4.3 10.4 0.12 0.38 0.38 96 1005.1
20260506204517 57 118 4.3 7.8 0.07 0.33 0.33 95 1005.2
20260506203047 57 166 2.6 7.0 0.05 0.28 0.28 95 1005.2
20260506201506 57 138 1.7 7.0 0.07 0.27 0.27 95 1005.5
20260506200032 57 144 3.5 7.0 0.14 0.26 0.26 95 1005.3
20260506194603 57 130 3.5 6.1 0.22 0.26 0.26 95 1005.7
20260506193027 57 134 1.7 4.3 0.23 0.24 0.24 94 1005.9
20260506191559 57 178 2.6 7.0 0.20 0.20 0.20 94 1005.8
20260506190026 58 155 1.7 5.2 0.12 0.12 0.12 92 1006.4
20260506184555 59 230 2.6 7.8 0.04 0.04 0.04 90 1006.0
20260506183033 60 172 0.9 9.6 0.01 0.01 0.01 86 1006.0
20260506181620 61 150 2.6 7.8 0.00 0.00 0.00 83 1005.7
20260506180027 63 132 3.5 10.4 0.00 0.00 0.00 78 1005.7
20260506174553 64 203 3.5 8.7 0.00 0.00 0.00 77 1005.6
20260506173019 64 167 2.6 7.8 0.00 0.00 0.00 78 1005.9
20260506171545 63 127 4.3 9.6 0.00 0.00 0.00 78 1006.0
20260506170011 63 125 2.6 7.8 0.00 0.00 0.00 79 1006.4
20260506164538 63 117 2.6 6.1 0.00 0.00 0.00 79 1006.6
20260506163001 63 143 2.6 6.1 0.00 0.00 0.00 80 1006.9
20260506161518 63 119 4.3 7.0 0.00 0.00 0.00 80 1007.5
20260506160053 62 134 2.6 5.2 0.00 0.00 0.00 81 1007.8
20260506154517 62 126 0.9 6.1 0.00 0.00 0.00 81 1008.1
20260506153108 61 142 2.6 7.8 0.00 0.00 0.00 81 1008.0
20260506151514 61 158 2.6 6.1 0.00 0.00 0.00 81 1008.1
20260506150050 61 123 2.6 7.8 0.00 0.00 0.00 81 1008.0
20260506144516 62 172 2.6 6.1 0.00 0.00 0.00 80 1007.8
20260506143042 62 140 1.7 6.1 0.00 0.00 0.00 80 1007.5
20260506141513 62 102 0.9 5.2 0.00 0.00 0.00 81 1007.6
20260506140041 63 162 1.7 2.6 0.00 0.00 0.00 79 1008.2
20260506134507 62 152 0.0 3.5 0.00 0.00 0.00 81 1008.3
20260506133027 61 162 0.0 2.6 0.00 0.00 0.00 82 1008.2
20260506131556 60 159 0.0 1.7 0.00 0.00 0.00 82 1008.0
20260506130021 60 148 1.7 2.6 0.00 0.00 0.00 82 1008.2
20260506124551 60 173 0.0 4.3 0.00 0.00 0.00 82 1008.1
20260506123021 59 100 2.6 5.2 0.00 0.00 0.00 83 1008.2
20260506121541 57 124 0.9 3.5 0.00 0.00 0.00 85 1008.5
20260506120018 56 119 1.7 2.6 0.00 0.00 0.00 85 1008.5
20260506114541 56 117 0.0 0.0 0.00 0.00 0.00 86 1008.7
20260506113023 55 131 0.0 0.0 0.00 0.00 0.00 87 1008.8
20260506111539 54 132 0.0 3.5 0.00 0.00 0.00 87 1008.9
20260506110003 54 180 0.9 4.3 0.00 0.00 0.00 87 1009.0
20260506104533 54 146 0.0 2.6 0.00 0.00 0.00 87 1008.9
20260506103057 53 167 0.0 1.7 0.00 0.00 0.00 87 1008.8
20260506101522 53 131 1.7 3.5 0.00 0.00 0.00 87 1008.5
20260506100050 53 159 0.0 2.6 0.00 0.00 0.00 87 1008.5
20260506094514 53 121 0.0 2.6 0.00 0.00 0.00 86 1008.5
20260506093039 54 108 0.0 1.7 0.00 0.00 0.00 86 1008.5
20260506091505 54 150 1.7 4.3 0.00 0.00 0.00 85 1008.6
20260506090024 54 141 0.9 2.6 0.00 0.00 0.00 84 1008.4
20260506084549 55 152 0.0 0.0 0.00 0.00 0.00 84 1008.2
20260506083009 55 209 0.0 1.7 0.00 0.00 0.00 83 1008.3
20260506081533 55 151 1.7 3.5 0.00 0.00 0.00 83 1007.8
20260506080107 56 128 0.9 3.5 0.00 0.00 0.00 83 1008.0
20260506073043 56 215 0.0 5.2 0.00 0.00 0.00 82 1008.0
20260506071505 56 157 1.7 6.1 0.00 0.00 0.00 82 1007.7